AirNav   Air Wisconsin Up To $57,000 Bonus
 
 280 users online  

KHIG Higginsville Industrial Municipal Airport
Higginsville, Missouri, USA

GOING TO HIGGINSVILLE?


FAA INFORMATION EFFECTIVE 12 SEPTEMBER 2019

Location

FAA Identifier: HIG
Lat/Long: 39-04-20.8000N 093-40-38.5000W
39-04.346667N 093-40.641667W
39.0724444,-93.6773611
(estimated)
Elevation: 840 ft. / 256.0 m (surveyed)
Variation: 02E (2005)
From city: 2 miles E of HIGGINSVILLE, MO
Time zone: UTC -5 (UTC -6 during Standard Time)
Zip code: 64037

Airport Operations

Airport use: Open to the public
Control tower: no
ARTCC: KANSAS CITY CENTER
FSS: COLUMBIA FLIGHT SERVICE STATION
NOTAMs facility: COU (NOTAM-D service available)
Attendance: SEP-APR 0800-1700, MAY-AUG 0700-1900
Wind indicator: lighted
Segmented circle: no
Lights: ACTVT MIRL RY 16/34; PAPI & REIL RYS 16 & 34 - CTAF.
Beacon: white-green (lighted land airport)
Operates sunset to sunrise.

Airport Communications

CTAF/UNICOM: 122.8
WX AWOS-3 at RCM (18 nm S): 119.575 (660-422-7010)

Nearby radio navigation aids

VOR radial/distance  VOR name  Freq  Var
ANXr087/21.1NAPOLEON VORTAC114.0007E
BQSr162/34.7BRAYMER VOR/DME111.2003E

 
NDB name  Hdg/Dist  Freq  Var  ID
SEDALIA310/32.228103EDMO -.. -- ---

Airport Services

Fuel available: 100LL
FOR SVC AFT HRS, CALL NBRS POSTED ON TERMINAL DOOR.
Parking: hangars and tiedowns
Airframe service: MAJOR
Powerplant service: MAJOR
Bottled oxygen: NONE
Bulk oxygen: NONE

Runway Information

Runway 16/34

Dimensions: 4400 x 75 ft. / 1341 x 23 m
Surface: asphalt, in good condition
Weight bearing capacity: 
Single wheel: 12.5
Double wheel: 16.0
Runway edge lights: medium intensity
Gradient: N
RUNWAY 16  RUNWAY 34
Latitude: 39-04.698333N39-03.996667N
Longitude: 093-40.758333W093-40.525000W
Elevation: 840.0 ft.796.0 ft.
Traffic pattern: leftleft
Runway heading: 164 magnetic, 166 true344 magnetic, 346 true
Declared distances: TORA:4400 TODA:4400 ASDA:4400 LDA:4400TORA:4400 TODA:4400 ASDA:4400 LDA:4400
Markings: nonprecision, in good conditionnonprecision, in good condition
Visual slope indicator: 4-light PAPI on left (3.00 degrees glide path)4-light PAPI on left (3.00 degrees glide path)
Runway end identifier lights: yesyes
Touchdown point: yes, no lightsyes, no lights

Airport Ownership and Management from official FAA records

Ownership: Publicly-owned
Owner: CITY OF HIGGINSVILLE
1922 MAIN ST BOX 110
HIGGINSVILLE, MO 64037
Phone 660-584-2106
Manager: CITY OF HIGGINSVILLE
11667 AIRPORT ROAD
HIGGINSVILLE, MO 64037
Phone 660-584-3339

Airport Operational Statistics

Aircraft based on the field: 18
Single engine airplanes: 15
Multi engine airplanes: 2
Jet airplanes: 1
    
Aircraft operations: avg 69/week *
58% transient general aviation
40% local general aviation
1% military
<1% air taxi
* for 12-month period ending 31 December 2017

Additional Remarks

A58-34 RWY 34 6-9 FT BRUSH 30-70 FT FM RWY END, 100-140 FT R.
WILDLIFE ON & INVOF ARPT.
EXTENSIVE HELICOPTER OPERATIONS.
FOR CD CTC WHITEMAN APCH AT 660-687-3132. WHEN WHITEMAN APCH IS CLSD, CTC KANSAS CITY ARTCC AT 913-254-8508.

Instrument Procedures

NOTE: All procedures below are presented as PDF files. If you need a reader for these files, you should download the free Adobe Reader.

NOT FOR NAVIGATION. Please procure official charts for flight.
FAA instrument procedures published for use from 12 September 2019 at 0901Z to 10 October 2019 at 0900Z.

 
IAPs - Instrument Approach Procedures
RNAV (GPS) RWY 16   download (201KB)
RNAV (GPS) RWY 34   download (193KB)
NOTE: Special Take-Off Minimums/Departure Procedures apply   download (158KB)

Other nearby airports with instrument procedures:

KRCM - Skyhaven Airport (18 nm S)
KSZL - Whiteman Air Force Base (21 nm S)
KMHL - Marshall Memorial Municipal Airport (22 nm E)
3GV - East Kansas City Airport (25 nm W)
3EX - Excelsior Springs Memorial Airport (29 nm NW)
 
Loc | Ops | Rwys | IFR | FBO | Links
Com | Nav | Svcs | Stats | Notes

Kansas City Aviation Department
 
Area around KHIG (Higginsville Industrial Municipal Airport)
 
Road maps at: MapQuest Bing Google
 
Aerial photo
WARNING: Photo may not be current or correct
Aerial photo of KHIG (Higginsville Industrial Municipal Airport)
Do you have a better or more recent aerial photo of Higginsville Industrial Municipal Airport that you would like to share? If so, please send us your photo.

 
Sectional chart

 
Airport distance calculator
Flying to Higginsville Industrial Municipal Airport? Find the distance to fly.

From to KHIG

Sunrise and sunset
Times for 22-Sep-2019
 Local
(UTC-5)
 Zulu
(UTC)
Morning civil twilight06:3711:37
Sunrise07:0312:03
Sunset19:1200:12
Evening civil twilight19:3800:38

Current date and time
Zulu (UTC)  22-Sep-2019 08:03:11
Local (UTC-5)  22-Sep-2019 03:03:11
 
METAR
KRCM 
18nm S 
220755Z AUTO 17009KT 10SM CLR 22/19 A2993 RMK AO2
KMHL 
22nm E 
220755Z AUTO 29011G15KT 10SM CLR 23/20 A2994 RMK AO2 TSNO PWINO
KSZL 
22nm S 
220756Z 19013KT 10SM BKN100 23/21 A2990 RMK AO2A SLP121 T02250213 $
KDMO 
32nm SE 
220753Z AUTO 18013KT 10SM CLR 22/19 A2995 RMK AO2 SLP136 T02220194
KLXT 
33nm W 
220753Z AUTO 10SM FEW080 23/19 A2991 RMK AO2 SLP121 T02330194
KGPH 
33nm NW 
220735Z AUTO 20008KT 10SM BKN110 24/20 A2990 RMK AO2 LTG DSNT N
TAF
KSZL 
22nm S 
220300Z 2203/2309 18012KT 9999 SCT060 BKN080 BKN110 QNH2988INS TEMPO 2212/2215 20012G18KT 8000 -SHRA SCT020 BKN030 OVC100 BECMG 2215/2216 21012G18KT 9999 BKN040 BKN080 QNH2986INS TEMPO 2218/2224 22015G35KT 3200 -TSRA BKN015CB OVC030 BECMG 2300/2301 24012KT 9000 -SHRA BKN030 OVC050 QNH2987INS BECMG 2304/2305 33006KT 1600 BR SCT030 BKN080 QNH2993INS TX23/2203Z TN20/2303Z
NOTAMs
Click for the latest NOTAMs
NOTAMs are issued by the DoD/FAA and will open in a separate window not controlled by AirNav.

 

 
 

FBO, Fuel Providers, and Aircraft Ground Support

  
 Business Name 
 
 Contact 
 
 Services / Description 
 
Fuel Prices
 
Comments
  
City of Higginsville 660-584-3339
no information available

If you are affiliated with City of Higginsville and would like to show here your services, contact info, web link, logo, and more, click here
100LL
SS $3.99 
 Updated 09-Sep-2019
 
   write
SS=Self service
Update Fuel Prices
 

Would you like to see your business listed on this page?

 If your business provides an interesting product or service to pilots, flight crews, aircraft, or users of the Higginsville Industrial Municipal Airport, you should consider listing it here.  To start the listing process, click on the button below
 
Add a business
 

Other Pages about Higginsville Industrial Municipal Airport

Update a link
 
Copyright © AirNav, LLC. All rights reserved. Privacy Policy  Contact